Regional Weather Roundup
Issued by NWS

Home | Current Version | Previous Version | Graphics & Text | Print | Product List | Glossary On
Versions: 1 2 3 4 5 6 7 8 9 10 11 12 13 14 15 16 17 18 19 20 21 22 23 24 25 26 27 28 29 30 31 32 33 34 35 36 37 38 39 40 41 42 43 44 45 46 47 48 49 50
000
ASUS45 KSLC 042310
RWRUT

UTAH REGIONAL WEATHER ROUNDUP
NATIONAL WEATHER SERVICE SALT LAKE CITY UT
500 PM MDT MON MAY 04 2015

UTZ001>011-023>025-050000-

NORTHERN UTAH

CITY           SKY/WX    TMP DP  RH WIND       PRES   REMARKS
BRIGHAM CITY   CLOUDY    68  40  35 E10G20    29.88R
HILL AFB       TSTM      60  45  57 E21G29    29.91S
LOGAN          TSTM      64  45  49 S14       29.88S
OGDEN          CLOUDY    67  40  37 VRB7      29.88S
PROVO AIRPORT  PTSUNNY   70  43  37 W9        29.88F
SALT LAKE CITY CLOUDY    68  41  37 SW5       29.87R
VERNAL         CLOUDY    66  37  34 E17G23    29.92R
WENDOVER       CLOUDY    73  34  23 W3        29.85S
HEBER CITY     CLOUDY    63  36  36 CALM      29.95F
WEST JORDAN    CLOUDY    61  52  72 W8        29.89F

$$

UTZ012>022-026-027-050000-

SOUTHERN/CENTRAL UTAH

CITY           SKY/WX    TMP DP  RH WIND       PRES   REMARKS
BLANDING       PTSUNNY   63  39  41 SW15      30.00F
BRYCE CANYON   CLOUDY    55  37  50 W13       30.01F
CEDAR CITY     PTSUNNY   62  39  42 W12       29.91F
DELTA          PTSUNNY   71  34  25 S14       29.85F
HANKSVILLE     PTSUNNY   73  39  29 CALM      29.87F
MILFORD        CLOUDY    69  36  29 E6        29.88F
MOAB/CYNLANDS  MOSUNNY   74  36  25 CALM      29.83F
PRICE          CLOUDY    72  35  25 SW8       29.91F
ST GEORGE      CLOUDY    75  41  29 W13G20    29.83F
KANAB          CLOUDY    66  37  34 SE7       29.93F

$$

REGIONAL REPORTS     COLORADO/ARIZONA

CITY           SKY/WX    TMP DP  RH WIND       PRES   REMARKS
CRAIG, CO      CLOUDY    62  38  40 SE3       29.99F
GRAND JUNCTION CLOUDY    62  41  46 W6        29.91F
RIFLE          CLOUDY    64  44  48 NW3       29.94F
MONTROSE       CLOUDY    67  35  30 NW9       29.95F
CORTEZ         PTSUNNY   64  38  38 MISG      29.94F
PAGE, AZ       CLOUDY    69  41  36 CALM      29.87F
GRAND CANYON   CLOUDY    51  41  68 N8        30.00F
KINGMAN        LGT RAIN  58  51  78 E6        29.93F
FLAGSTAFF      PTSUNNY   55  35  47 SW16      29.99F

$$

REGIONAL REPORTS    NEVADA/IDAHO/WYOMING

CITY           SKY/WX    TMP DP  RH WIND       PRES   REMARKS
LAS VEGAS, NV  CLOUDY    74  40  29 S13       29.77F
ELY            CLOUDY    58  37  45 SW3       29.99F
ELKO           CLOUDY    70  30  22 S14       29.87R
POCATELLO, ID  PTSUNNY   74  30  19 CALM      29.87F
BURLEY         CLOUDY    69  42  37 SW9       29.83F
EVANSTON, WY   PTSUNNY   52  42  69 W12       30.04F
ROCK SPRINGS   CLOUDY    60  34  37 S12       29.99F
KEMMERER       CLOUDY    48  39  71 N14       30.05R

$$


USA.gov is the U.S. government's official web portal to all federal, state and local government web resources and services.